[[{"header":{"parameterUnit":"m.s-1","parameterCategory":1,"la1":30.2991,"la2":30.254,"lo1":-89.0895,"lo2":-89.0444,"dy":0.0017,"dx":0.0017,"nx":28,"ny":28,"refTime":"2023-04-28T21:00:00:Z","depth":0,"parameterNumber":2,"parameterNumberName":"U-component_of_WINDS"},"data":[0,0,0,0,0,0,0,0,0,0,0,0,0,0,0,0,0,0,0,0,0,0,0,0,0,0,0,0,0,0,0,0,0,0,0,0,0,0,0,0,0,0,0,0,0,0,0,0,0,0,0,0,0,0,0,0,0,0,-0.1232,-0.1231,0,-0.1211,-0.1211,-0.1211,-0.1202,-0.1202,-0.1202,-0.1203,-0.1181,-0.118,-0.118,0,0,0,0,0,0,0,0,0,0,0,0,0,-0.1265,-0.1264,-0.1232,-0.1231,-0.1231,-0.1211,-0.1211,-0.1211,-0.1202,-0.1202,-0.1202,-0.1203,-0.1181,-0.118,-0.118,0,0,0,0,0,0,0,0,0,0,0,0,0,-0.1248,-0.1264,-0.1232,-0.1225,-0.1224,-0.1211,-0.1211,-0.121,-0.1202,-0.1202,-0.1203,-0.1203,-0.1181,-0.1181,-0.118,-0.1172,0,0,-0.1177,-0.1176,0,0,0,0,0,0,0,0,-0.1249,-0.1247,-0.1226,-0.1225,-0.1224,-0.1209,-0.1215,-0.1198,-0.1202,-0.1211,-0.1203,-0.1203,-0.119,-0.1189,-0.1185,-0.1171,-0.117,-0.1177,-0.1176,-0.1176,-0.1175,0,0,0,0,0,0,0,-0.125,-0.1248,-0.1224,-0.1226,-0.1225,-0.1223,-0.1221,-0.1211,-0.12,-0.121,-0.1209,-0.1207,-0.119,-0.1186,-0.1184,-0.117,-0.1177,-0.1176,-0.1175,-0.1175,-0.1151,-0.1151,0,0,0,0,0,0,-0.1252,-0.1249,-0.1224,-0.1223,-0.1237,-0.1222,-0.122,-0.1214,-0.12,-0.1198,-0.1207,-0.1207,-0.1187,-0.1185,-0.1183,-0.1175,-0.1176,-0.1175,-0.1174,-0.1151,-0.1151,-0.1151,0,0,0,0,0,0,-0.1253,-0.125,-0.1225,-0.1236,-0.1232,-0.1222,-0.1215,-0.1214,-0.1209,-0.1198,-0.1196,-0.1204,-0.1187,-0.1185,-0.1175,-0.1174,-0.1174,-0.1174,-0.1151,-0.1151,-0.1151,-0.1157,0,0,0,0,0,0,-0.1254,-0.1251,-0.1247,-0.1236,-0.1232,-0.1217,-0.1215,-0.1213,-0.1208,-0.1207,-0.1195,-0.1193,-0.1187,-0.1177,-0.1174,-0.1172,-0.1173,-0.1151,-0.1151,-0.1151,-0.1157,-0.1157,-0.1157,0,0,0,0,0,-0.1255,-0.125,-0.1247,-0.1244,-0.1228,-0.1217,-0.1215,-0.1208,-0.1208,-0.1205,-0.1198,-0.1194,-0.1174,-0.1176,-0.1173,-0.1171,-0.1151,-0.1151,-0.1151,-0.1156,-0.1157,-0.1157,0,0,0,0,0,0,-0.1261,-0.1248,-0.1245,-0.1235,-0.1228,-0.1216,-0.1212,-0.1208,-0.12,-0.12,-0.1191,-0.1189,-0.1181,-0.1175,-0.1177,-0.1164,-0.1163,-0.1162,-0.1168,-0.1168,-0.1168,-0.117,-0.1172,0,0,0,0,0,-0.1261,-0.1254,-0.1243,-0.1235,-0.1232,-0.1222,-0.1218,-0.1213,-0.1204,-0.1201,-0.1193,-0.1185,-0.1177,-0.1172,-0.1164,-0.1156,-0.1153,-0.1153,-0.1153,-0.1153,-0.1153,-0.1149,-0.1148,-0.115,-0.115,-0.115,0,0,-0.1261,-0.1253,-0.1249,-0.1236,-0.123,-0.1223,-0.122,-0.1212,-0.1207,-0.12,-0.1191,-0.1185,-0.1175,-0.1167,-0.1163,-0.1162,-0.1152,-0.1153,-0.1153,-0.1153,-0.1148,-0.1148,-0.1148,-0.115,-0.115,-0.115,0,0,-0.1258,-0.1251,-0.1245,-0.1238,-0.1229,-0.1223,-0.1221,-0.121,-0.1206,-0.1197,-0.1192,-0.1186,-0.1172,-0.1166,-0.1161,-0.1157,-0.1153,-0.1155,-0.1156,-0.1152,-0.1152,-0.1151,-0.1151,-0.115,-0.1154,-0.1154,-0.1154,0,-0.126,-0.1249,-0.1242,-0.1235,-0.1229,-0.1223,-0.1217,-0.1211,-0.1199,-0.1196,-0.1195,-0.1179,-0.1172,-0.1162,-0.1162,-0.1157,-0.1156,-0.1156,-0.1152,-0.1152,-0.1152,-0.1151,-0.115,-0.1154,-0.1154,-0.1154,-0.1154,0,-0.1252,-0.1244,-0.124,-0.1229,-0.1224,-0.1217,-0.1209,-0.1204,-0.1201,-0.1195,-0.1186,-0.1178,-0.1169,-0.1166,-0.1162,-0.1156,-0.1156,-0.1154,-0.1153,-0.1152,-0.1151,-0.115,-0.1155,-0.1155,-0.1155,-0.1155,0,0,-0.1251,-0.1237,-0.1236,-0.1231,-0.122,-0.1215,-0.1208,-0.1199,-0.1196,-0.1188,-0.1183,-0.1172,-0.117,-0.1165,-0.116,-0.1157,-0.1155,-0.1155,-0.1155,-0.1156,-0.1149,-0.115,-0.115,-0.1152,-0.1152,-0.1152,-0.115,0,-0.1247,-0.1235,-0.1228,-0.1219,-0.1213,-0.1207,-0.1202,-0.1195,-0.119,-0.1184,-0.1178,-0.1171,-0.1169,-0.1166,-0.1162,-0.1156,-0.1153,-0.1156,-0.1147,-0.1147,-0.115,-0.1149,-0.1151,-0.1149,-0.1149,-0.1149,-0.1149,0,-0.124,-0.1233,-0.1223,-0.1214,-0.1211,-0.1206,-0.1198,-0.1192,-0.1185,-0.1181,-0.1176,-0.1171,-0.1165,-0.1164,-0.1155,-0.1157,-0.1153,-0.115,-0.115,-0.1149,-0.1148,-0.1149,-0.1148,-0.1148,-0.1148,-0.1148,-0.1148,0,-0.1241,-0.1229,-0.1222,-0.1218,-0.1207,-0.1204,-0.12,-0.1192,-0.1188,-0.1181,-0.1178,-0.117,-0.1166,-0.116,-0.1154,-0.1154,-0.1146,-0.1145,-0.1143,-0.1143,-0.1142,-0.1142,-0.1141,-0.1139,-0.1139,-0.1139,-0.1139,0,-0.1237,-0.1231,-0.1222,-0.1218,-0.1212,-0.1205,-0.1199,-0.1194,-0.1188,-0.1183,-0.1178,-0.1173,-0.1165,-0.1159,-0.1154,-0.1148,-0.1146,-0.1143,-0.1142,-0.1144,-0.1144,-0.1141,-0.1142,-0.1139,-0.1139,-0.1139,-0.1139,0,-0.1237,-0.1231,-0.1223,-0.1214,-0.1211,-0.1207,-0.12,-0.1195,-0.119,-0.1184,-0.1182,-0.1174,-0.1167,-0.1161,-0.1151,-0.1148,-0.1142,-0.114,-0.1145,-0.1144,-0.1143,-0.1144,-0.114,-0.114,-0.1138,-0.1138,-0.1138,0,-0.1235,-0.1231,-0.1222,-0.1218,-0.1214,-0.1208,-0.1203,-0.1197,-0.1193,-0.1184,-0.1181,-0.1174,-0.1168,-0.1158,-0.1151,-0.1144,-0.1143,-0.1142,-0.1141,-0.1144,-0.1143,-0.1143,-0.1143,-0.1142,-0.1142,-0.1142,-0.1142,0,-0.1233,-0.123,-0.1224,-0.1217,-0.1212,-0.1206,-0.12,-0.1198,-0.119,-0.1186,-0.1179,-0.1175,-0.1166,-0.1159,-0.1152,-0.1147,-0.1144,-0.1143,-0.1142,-0.1144,-0.1147,-0.1146,-0.1146,-0.1143,-0.1143,-0.1142,-0.1142,-0.1142,-0.1232,-0.1228,-0.1221,-0.1215,-0.121,-0.1205,-0.1201,-0.1196,-0.119,-0.1182,-0.1179,-0.1173,-0.1166,-0.1156,-0.1151,-0.1146,-0.1145,-0.1144,-0.1144,-0.1144,-0.1144,-0.1148,-0.1145,-0.1145,-0.1145,-0.1145,-0.1145,0,-0.1229,-0.1225,-0.1219,-0.1211,-0.1207,-0.1204,-0.1198,-0.1194,-0.1189,-0.1183,-0.1177,-0.117,-0.1164,-0.1157,-0.1151,-0.1148,-0.1146,-0.1146,-0.1146,-0.1146,-0.1145,-0.1147,-0.1148,-0.1148,-0.1148,-0.1148,-0.1148,-0.1148,-0.1227,-0.1221,-0.1218,-0.121,-0.1205,-0.1199,-0.1196,-0.1191,-0.1187,-0.1179,-0.1174,-0.117,-0.1164,-0.1157,-0.1151,-0.1149,-0.1147,-0.1148,-0.1146,-0.1146,-0.1146,-0.1145,-0.1147,-0.1148,-0.1148,-0.1147,-0.1147,-0.1147]},{"header":{"parameterUnit":"m.s-1","parameterCategory":1,"la1":30.2991,"la2":30.254,"lo1":-89.0895,"lo2":-89.0444,"dy":0.0017,"dx":0.0017,"nx":28,"ny":28,"refTime":"2023-04-28T21:00:00:Z","depth":0,"parameterNumber":3,"parameterNumberName":"V-component_of_WINDS"},"data":[0,0,0,0,0,0,0,0,0,0,0,0,0,0,0,0,0,0,0,0,0,0,0,0,0,0,0,0,0,0,0,0,0,0,0,0,0,0,0,0,0,0,0,0,0,0,0,0,0,0,0,0,0,0,0,0,0,0,2.7554,2.7553,0,2.7476,2.7475,2.7475,2.7384,2.7383,2.7381,2.738,2.73,2.7299,2.7298,0,0,0,0,0,0,0,0,0,0,0,0,0,2.7622,2.7621,2.7554,2.7553,2.7552,2.7476,2.7475,2.7474,2.7384,2.7383,2.7381,2.7379,2.73,2.7299,2.7298,0,0,0,0,0,0,0,0,0,0,0,0,0,2.7573,2.7621,2.7554,2.7498,2.7492,2.7477,2.7475,2.7474,2.7385,2.7383,2.7381,2.7379,2.7301,2.7299,2.7298,2.7331,0,0,2.7294,2.7294,0,0,0,0,0,0,0,0,2.7576,2.7571,2.7507,2.7502,2.7495,2.7438,2.747,2.7426,2.7385,2.7425,2.738,2.7378,2.7347,2.7342,2.7332,2.7327,2.7324,2.7294,2.7293,2.7293,2.7292,0,0,0,0,0,0,0,2.758,2.7574,2.7523,2.7506,2.7499,2.7476,2.7467,2.7461,2.7399,2.7422,2.7415,2.7407,2.7344,2.7334,2.733,2.7323,2.7294,2.7293,2.7292,2.7292,2.734,2.7342,0,0,0,0,0,0,2.7592,2.7577,2.7525,2.7521,2.7531,2.7476,2.7466,2.7458,2.7399,2.7388,2.7409,2.7403,2.7337,2.7331,2.7326,2.736,2.7293,2.7291,2.7291,2.7338,2.734,2.7342,0,0,0,0,0,0,2.7593,2.7588,2.7529,2.7547,2.7538,2.7477,2.7469,2.7458,2.7447,2.7389,2.7377,2.741,2.7335,2.7328,2.733,2.7356,2.7291,2.729,2.7335,2.7338,2.7341,2.7429,0,0,0,0,0,0,2.7596,2.7589,2.7602,2.7548,2.7537,2.7535,2.7471,2.7458,2.7446,2.7437,2.7387,2.7377,2.7333,2.7333,2.7329,2.7353,2.7289,2.7333,2.7337,2.734,2.7423,2.7434,2.7444,0,0,0,0,0,2.7598,2.7629,2.7603,2.7597,2.7552,2.7536,2.753,2.7479,2.7448,2.746,2.7422,2.7378,2.7354,2.7334,2.7329,2.7353,2.7331,2.7335,2.734,2.7419,2.7432,2.7444,0,0,0,0,0,0,2.7687,2.7621,2.7591,2.7606,2.7577,2.7521,2.7534,2.7496,2.7475,2.7468,2.7406,2.7395,2.7405,2.7379,2.7357,2.7381,2.7336,2.734,2.7397,2.741,2.742,2.7426,2.7288,0,0,0,0,0,2.7709,2.7702,2.7645,2.7663,2.7651,2.7595,2.7587,2.755,2.7518,2.7506,2.7468,2.7438,2.7423,2.7415,2.7399,2.7419,2.7406,2.7433,2.7444,2.7452,2.7456,2.7463,2.7474,2.7357,2.7357,2.7357,0,0,2.7753,2.7716,2.7716,2.768,2.7654,2.7648,2.7586,2.7583,2.7577,2.7505,2.7504,2.7476,2.7438,2.745,2.7453,2.7428,2.7486,2.7458,2.7466,2.7464,2.7469,2.748,2.749,2.7361,2.736,2.7359,0,0,2.7829,2.7802,2.7813,2.7788,2.7749,2.7712,2.7715,2.7664,2.7643,2.7641,2.7586,2.7579,2.7556,2.7531,2.7515,2.7582,2.754,2.7578,2.7632,2.764,2.7649,2.7657,2.768,2.7689,2.7582,2.7583,2.7583,0,2.7889,2.7878,2.7824,2.7824,2.7809,2.7744,2.7754,2.7732,2.769,2.7681,2.7655,2.7624,2.7594,2.7598,2.7614,2.7604,2.7604,2.7583,2.7652,2.766,2.7666,2.7687,2.7696,2.7587,2.7587,2.7586,2.7586,0,2.7952,2.7946,2.796,2.7921,2.7908,2.7913,2.7859,2.7852,2.7817,2.7782,2.7781,2.7743,2.7717,2.7715,2.768,2.7714,2.77,2.7664,2.7617,2.7683,2.7701,2.7709,2.7594,2.7593,2.7591,2.759,0,0,2.8082,2.8013,2.8019,2.8,2.7952,2.7945,2.7948,2.7922,2.7917,2.789,2.789,2.7871,2.7837,2.782,2.7781,2.7789,2.7842,2.7751,2.7749,2.7769,2.7875,2.7902,2.7912,2.7815,2.7816,2.7817,2.7878,0,2.815,2.8149,2.81,2.8114,2.8106,2.8044,2.8045,2.8016,2.7983,2.7972,2.7936,2.7923,2.788,2.7869,2.7873,2.7835,2.7862,2.783,2.7812,2.7812,2.7823,2.7921,2.795,2.8009,2.7885,2.7886,2.7887,0,2.8228,2.8205,2.8218,2.8169,2.8164,2.8166,2.8138,2.8129,2.8093,2.8069,2.805,2.8006,2.8003,2.796,2.7955,2.7934,2.7924,2.7904,2.7905,2.79,2.7853,2.7919,2.8026,2.8035,2.7898,2.7897,2.7896,0,2.832,2.8293,2.8297,2.8282,2.8225,2.8228,2.8205,2.8167,2.8155,2.8131,2.8122,2.8098,2.8084,2.8066,2.8017,2.799,2.8017,2.797,2.7996,2.7997,2.8004,2.8004,2.811,2.7999,2.7999,2.7999,2.7999,0,2.84,2.8409,2.8337,2.834,2.8348,2.8292,2.8302,2.8272,2.8239,2.8234,2.8178,2.8174,2.811,2.8098,2.806,2.806,2.8055,2.8035,2.8024,2.8039,2.8042,2.8031,2.8025,2.8001,2.8001,2.8,2.8,0,2.8504,2.8456,2.8456,2.8402,2.8388,2.8397,2.835,2.835,2.8314,2.8308,2.8303,2.8247,2.823,2.8179,2.815,2.8124,2.8136,2.8116,2.8148,2.8141,2.817,2.8167,2.8272,2.8283,2.8166,2.8167,2.8168,0,2.8557,2.8563,2.851,2.8503,2.8481,2.847,2.8457,2.8401,2.839,2.835,2.8354,2.8333,2.8313,2.829,2.8245,2.8222,2.8201,2.824,2.8197,2.8212,2.82,2.82,2.82,2.8249,2.825,2.8252,2.8253,0,2.8657,2.8632,2.8616,2.8592,2.8578,2.8556,2.8531,2.8528,2.8465,2.8455,2.8438,2.8422,2.8392,2.8372,2.8342,2.8316,2.8274,2.8266,2.8271,2.8286,2.8303,2.8293,2.8172,2.8264,2.8263,2.8262,2.8261,2.8261,2.8736,2.8738,2.8701,2.8684,2.8659,2.8637,2.8633,2.8597,2.8582,2.8553,2.8521,2.8507,2.847,2.8426,2.8403,2.8391,2.8368,2.8375,2.8377,2.8379,2.8386,2.8306,2.8385,2.8385,2.8384,2.8384,2.8384,0,2.8831,2.8804,2.879,2.8756,2.8743,2.8705,2.8675,2.8666,2.8655,2.8625,2.8606,2.8586,2.8565,2.852,2.8495,2.8494,2.8474,2.8489,2.8488,2.8482,2.8408,2.8406,2.8506,2.8506,2.8506,2.8505,2.8505,2.8505,2.8879,2.8881,2.8852,2.884,2.8813,2.8799,2.8785,2.8763,2.8739,2.8719,2.8702,2.8672,2.8635,2.8607,2.8587,2.8573,2.8566,2.8588,2.8569,2.85,2.8488,2.8477,2.8475,2.8587,2.8587,2.8644,2.8645,2.8645]}]]